Weather History for Fayetteville, AR

Change the Weather History Date:

Sunday, November 18, 2012

  Actual Average Record
Temperature  
Mean Temperature 46 °F 46 °F  
Max Temperature 64 °F 58 °F 77 °F (1991)
Min Temperature 28 °F 35 °F 12 °F (1951)
Degree Days  
Heating Degree Days 19 19  
Month to date heating degree days 273  
Since 1 July heating degree days 573  
Moisture  
Dew Point 29 °F    
Average Humidity 54    
Maximum Humidity 89    
Minimum Humidity 23    
Precipitation  
Precipitation 0.00 in 0.15 in 0.91 in (1957)
Month to date precipitation 2.60  
Year to date precipitation 43.64  
Sea Level Pressure  
Sea Level Pressure 30.29 in    
Wind  
Wind Speed 3 mph (SSE)    
Max Wind Speed 12 mph    
Max Gust Speed 17 mph    
Visibility 10 miles    
Events      
T = Trace of Precipitation, MM = Missing Value Source: NWS Daily Summary

Daily Weather History Graph

Daily Weather History Graph

Search for Another Location

Airport:

Trip Planner

Search our weather history database for the weather conditions in past years. The results will help you decide how hot, cold, wet, or windy it might be!

Date:

Astronomy

Nov. 18, 2012 Rise Set
Actual Time 6:56 AM CST 5:06 PM CST
Civil Twilight 6:29 AM CST 5:34 PM CST
Nautical Twilight 5:58 AM CST 6:05 PM CST
Astronomical Twilight 5:27 AM CST 6:36 PM CST
Moon 11:26 AM CST (11/18) 10:24 PM CST (11/18)
Length of Visible Light 11h 05m
Length of Day
10h 10m
Waxing Crescent, 30% of the Moon is Illuminated
Nov 18
Waxing Crescent
Nov 20
First Quarter
Nov 28
Full
Dec 6
Last Quarter
Dec 13
New

Hourly Weather History & Observations

Time (CST) Temp. Dew Point Humidity Pressure Visibility Wind Dir Wind Speed Gust Speed Precip Events Conditions
12:53 AM 30.2 °F 26.6 °F 86% 30.34 in 10.0 mi Calm Calm - N/A   Clear
1:53 AM 28.9 °F 26.1 °F 89% 30.35 in 10.0 mi Calm Calm - N/A   Clear
2:53 AM 28.9 °F 26.1 °F 89% 30.35 in 10.0 mi Calm Calm - N/A   Clear
3:53 AM 28.9 °F 26.1 °F 89% 30.33 in 10.0 mi Calm Calm - N/A   Clear
4:53 AM 28.9 °F 26.1 °F 89% 30.33 in 10.0 mi Calm Calm - N/A   Clear
5:53 AM 28.9 °F 26.1 °F 89% 30.33 in 10.0 mi Calm Calm - N/A   Clear
6:53 AM 30.0 °F 26.1 °F 85% 30.33 in 10.0 mi Calm Calm - N/A   Clear
7:53 AM 32.0 °F 28.0 °F 85% 30.35 in 10.0 mi Calm Calm - N/A   Clear
8:53 AM 46.0 °F 32.0 °F 58% 30.34 in 10.0 mi Calm Calm - N/A   Clear
9:53 AM 57.0 °F 26.1 °F 30% 30.34 in 10.0 mi South 10.4 mph 16.1 mph N/A   Clear
10:53 AM 60.1 °F 26.1 °F 27% 30.35 in 10.0 mi South 8.1 mph - N/A   Clear
11:53 AM 63.0 °F 26.1 °F 25% 30.31 in 10.0 mi SSW 10.4 mph - N/A   Clear
12:53 PM 64.0 °F 25.0 °F 23% 30.28 in 10.0 mi South 11.5 mph - N/A   Clear
1:53 PM 63.0 °F 27.0 °F 26% 30.27 in 10.0 mi South 11.5 mph - N/A   Clear
2:53 PM 64.0 °F 27.0 °F 25% 30.23 in 10.0 mi South 5.8 mph - N/A   Clear
3:53 PM 61.0 °F 27.0 °F 27% 30.24 in 10.0 mi South 9.2 mph - N/A   Clear
4:53 PM 53.1 °F 30.0 °F 41% 30.25 in 10.0 mi SSE 4.6 mph - N/A   Clear
5:53 PM 55.9 °F 28.0 °F 34% 30.25 in 10.0 mi SE 4.6 mph - N/A   Clear
6:53 PM 54.0 °F 30.9 °F 41% 30.25 in 10.0 mi Calm Calm - N/A   Clear
7:53 PM 55.0 °F 33.1 °F 43% 30.25 in 10.0 mi SSE 6.9 mph - N/A   Mostly Cloudy
8:53 PM 55.9 °F 33.1 °F 42% 30.25 in 10.0 mi SSE 9.2 mph 17.3 mph N/A   Partly Cloudy
9:53 PM 55.0 °F 35.1 °F 47% 30.24 in 10.0 mi SSE 10.4 mph - N/A   Clear
10:53 PM 54.0 °F 35.1 °F 49% 30.23 in 10.0 mi SSE 11.5 mph - N/A   Partly Cloudy
11:53 PM 53.1 °F 35.1 °F 50% 30.22 in 10.0 mi South 9.2 mph - N/A   Clear